SCP
0 0 0 0 0 0 0 0 0 0 0 0 0 0 0 0 0 1 1 1 2 2 2 2 2 2 2 2 2 2 2 2 1 1 1 1 1 1 1 1 1 1 1 0
0 0 0 0 0 0 0 0 0 0 0 0 0 0 0 0 0 0 1 1 1 2 2 2 2 2 2 2 2 2 2 2 1 1 1 1 1 1 1 1 1 1 1 1
0 0 0 0 0 0 0 0 0 0 0 0 0 0 0 0 0 0 1 1 1 2 2 2 2 2 2 2 2 2 2 1 1 1 1 1 1 1 1 1 1 1 1 1
0 0 0 0 0 0 0 0 0 0 0 0 0 0 0 0 0 0 1 1 1 1 2 2 1 1 1 1 1 1 1 1 1 1 1 1 1 1 1 1 1 1 1 1
0 0 0 0 0 0 0 0 0 0 0 0 0 0 0 0 0 0 1 1 1 1 1 1 1 1 1 1 1 1 1 1 1 1 1 1 1 1 1 1 1 1 1 1
0 0 0 0 0 -0 0 0 0 0 0 0 0 0 0 0 0 0 1 1 1 1 1 1 1 1 1 1 1 1 1 1 1 1 1 1 1 1 1 1 1 1 1 1
0 0 0 0 0 0 0 0 0 0 0 0 0 0 0 0 0 0 1 1 1 1 1 1 1 1 1 1 1 1 1 1 1 1 1 1 1 1 1 1 1 0 0 0
0 0 0 0 0 0 0 0 0 0 0 0 0 0 0 0 0 0 0 1 1 1 1 1 1 1 1 1 1 1 1 1 1 1 1 1 1 1 1 1 0 0 0 0
0 0 0 0 0 0 0 0 0 0 0 0 0 0 0 0 0 0 0 1 1 1 1 1 1 1 1 1 1 1 1 1 1 1 1 1 1 1 1 1 1 0 0 0
0 0 0 0 0 0 0 0 0 0 0 0 0 0 0 0 0 0 0 1 1 1 1 1 1 1 1 1 1 1 1 1 1 1 1 1 1 1 1 1 1 1 0 0
0 0 0 0 0 0 0 0 0 0 0 0 0 0 0 0 0 0 0 1 1 1 1 1 1 1 1 1 1 1 1 1 1 1 1 1 1 1 1 1 1 1 1 0
0 0 0 0 0 0 0 0 0 0 0 0 0 0 0 0 0 0 0 1 1 1 1 1 1 1 1 1 1 1 1 1 1 1 1 1 1 1 1 1 1 1 1 1
0 0 0 0 0 0 0 0 0 0 0 0 0 0 0 0 0 0 1 1 1 1 1 1 1 1 1 1 1 1 1 1 1 1 1 1 1 1 1 1 1 1 1 0
0 0 0 0 0 0 0 0 0 0 0 0 0 0 0 0 0 1 1 1 1 1 1 1 1 1 1 1 1 1 1 1 1 1 1 1 1 1 1 1 1 1 1 0
0 0 0 0 0 0 0 0 0 0 0 0 0 0 0 0 1 1 1 1 1 1 1 2 2 2 1 1 1 1 1 1 1 1 1 1 1 1 1 1 1 1 1 0
0 0 0 0 0 0 0 0 0 0 0 0 0 0 0 1 1 1 1 1 2 2 2 2 2 2 2 1 1 1 1 1 1 1 1 1 1 1 1 1 1 1 1 1
0 0 0 0 0 0 0 0 0 0 0 0 0 0 1 1 1 1 1 1 2 2 2 2 2 2 2 1 1 1 1 1 1 1 1 1 1 1 0 0 1 1 1 1
0 0 0 0 0 0 0 0 0 0 0 0 0 1 1 1 2 2 2 2 2 2 2 2 2 2 2 2 1 1 1 1 1 1 1 1 1 0 0 0 1 1 1 1
0 0 0 0 0 0 0 0 0 0 0 0 1 1 1 2 2 2 2 2 2 2 2 2 2 2 2 2 1 1 1 1 1 1 1 1 1 0 0 1 1 1 1 1
0 0 0 0 0 0 0 0 0 0 0 1 1 1 2 2 2 2 2 2 2 2 2 2 2 2 2 2 1 1 1 1 1 1 1 1 1 0 0 0 1 1 1 1
0 0 0 0 0 0 0 0 0 1 1 1 1 2 2 2 2 2 2 2 2 2 2 2 2 2 2 2 1 1 1 1 1 1 1 1 0 0 0 0 0 0 0 0
0 0 0 0 0 0 1 1 1 1 1 2 2 2 2 2 2 2 2 2 2 2 2 2 2 2 2 1 1 1 1 1 1 1 1 1 0 0 0 0 0 0 0 0
0 0 0 0 0 1 1 1 1 1 1 1 1 2 2 2 2 1 1 1 1 1 1 1 2 2 1 1 1 1 1 1 1 1 1 1 0 0 0 0 0 0 0 0
0 0 0 0 1 1 1 1 1 1 1 1 1 1 1 1 1 1 1 1 1 1 1 1 1 1 1 1 1 1 1 1 1 1 1 1 0 0 0 0 0 0 0 0
0 0 0 0 1 1 1 1 1 1 1 1 1 1 1 1 1 1 1 1 1 1 1 1 1 1 1 1 1 1 1 1 1 1 1 1 0 0 0 0 0 0 0 0
0 0 0 0 1 1 0 0 1 1 1 1 1 1 1 1 1 1 1 1 1 1 1 1 1 1 1 1 1 1 1 1 1 1 1 0 0 0 0 0 0 0 0 0
Wind_Speed
11 12 13 13 14 13 14 14 12 8 4 4 8 8 5 3 4 6 7 9 10 11 11 11 11 11 11 10 10 10 9 9 7 6 5 4 4 3 3 4 6 6 5 6
13 16 17 14 12 11 12 12 13 10 6 5 8 11 6 4 5 6 8 10 10 11 12 12 11 11 11 11 10 9 9 9 9 6 4 4 3 3 3 3 5 6 5 5
18 13 9 12 13 13 12 12 12 11 9 8 10 11 7 4 4 7 8 9 9 12 13 13 12 11 11 11 10 9 9 9 9 8 5 4 3 2 3 3 4 5 5 5
17 17 12 10 12 13 12 12 12 11 11 10 10 8 5 6 7 7 8 9 9 10 11 12 11 10 11 11 10 8 8 9 8 8 8 8 6 5 5 4 4 4 5 5
14 14 15 14 13 12 12 11 11 11 11 12 13 10 3 6 7 7 9 9 11 12 12 12 11 11 10 10 9 9 9 9 9 8 8 8 7 5 4 4 5 5 4 5
18 14 13 14 13 12 11 11 11 11 11 13 13 10 5 4 5 7 8 9 10 12 12 11 11 10 8 9 9 9 9 8 9 8 7 7 7 6 6 5 6 5 4 5
18 18 15 12 13 13 11 10 8 10 9 9 8 8 3 5 5 6 8 10 10 10 11 11 11 10 9 9 8 9 9 9 9 9 8 7 6 6 6 6 6 5 5 5
17 16 18 15 14 12 12 13 11 9 6 5 5 6 2 5 6 7 8 10 10 10 10 10 10 9 8 8 8 9 9 9 9 8 7 7 6 5 5 6 5 5 4 4
13 14 15 15 14 15 15 13 15 14 14 11 7 5 6 6 6 7 9 10 10 9 10 11 11 9 8 9 8 8 8 8 8 8 7 7 7 6 5 5 5 4 4 5
19 13 8 12 11 14 16 13 9 10 10 11 8 6 1 5 6 4 7 10 10 10 10 11 11 10 9 8 8 8 8 7 7 7 7 6 6 5 5 5 6 5 5 5
19 15 13 11 13 13 13 14 11 9 9 9 7 2 2 7 8 7 7 10 11 11 11 11 10 10 9 9 8 8 8 7 7 6 6 5 5 5 4 4 4 4 4 5
15 12 13 12 12 13 14 14 13 9 9 10 9 4 6 6 8 8 8 10 10 10 11 11 11 10 9 9 8 7 7 7 6 6 6 5 5 4 4 4 3 3 4 5
8 10 12 13 12 14 14 14 13 12 9 10 10 2 5 4 4 6 9 10 10 10 10 11 10 8 8 7 7 7 7 6 6 6 6 5 5 4 4 3 3 4 4 4
5 9 13 14 10 9 13 14 14 14 11 11 11 6 4 5 4 5 8 9 10 10 9 9 8 7 7 6 6 6 6 6 6 5 5 5 4 4 4 3 3 4 4 5
7 12 14 16 17 13 12 13 15 15 14 13 9 7 4 5 6 7 8 9 11 11 10 9 8 7 6 6 5 5 5 5 4 5 4 4 4 4 4 4 4 4 4 5
10 11 13 16 18 18 16 14 14 15 13 14 12 9 3 5 6 7 9 11 11 11 10 9 9 8 7 6 5 5 4 4 4 4 4 4 5 4 4 4 4 5 5 5
11 11 13 14 16 18 19 15 14 13 13 13 11 6 5 6 6 5 6 9 10 10 10 9 8 7 7 6 5 5 4 4 4 4 5 5 5 5 4 5 5 5 5 6
8 8 9 13 15 19 12 12 13 13 11 8 4 3 3 8 9 5 5 8 10 10 9 8 8 8 8 7 6 5 5 4 4 5 5 5 5 5 5 5 5 5 5 6
9 7 9 11 15 16 14 11 10 10 8 6 4 2 5 9 9 5 5 7 9 9 8 7 7 7 7 6 6 5 5 4 4 5 5 5 6 6 5 5 5 5 6 6
13 8 10 12 14 13 8 6 7 7 6 2 2 2 6 7 5 5 7 7 9 9 8 7 7 7 6 5 5 5 5 5 4 4 5 5 5 6 6 6 6 6 6 7
16 14 14 15 15 12 7 3 3 6 1 6 6 5 6 4 5 9 10 9 9 7 7 7 7 6 5 4 4 5 4 4 4 5 6 6 6 6 6 7 6 7 7 8
14 14 15 14 16 11 6 2 0 5 7 8 10 10 11 11 11 11 10 8 7 7 7 6 6 5 4 4 4 4 4 4 4 5 6 7 6 6 6 7 7 7 8 9
7 6 6 7 5 4 7 7 6 6 6 6 8 9 10 9 9 9 8 6 6 6 5 5 5 5 5 4 4 4 4 4 6 6 6 7 7 7 6 7 8 7 7 7
4 2 3 2 4 5 6 6 6 6 6 6 6 6 6 6 7 8 6 6 5 5 5 4 5 5 4 4 4 4 4 5 6 7 7 7 8 8 7 5 5 5 5 6
3 3 4 3 4 4 3 4 5 5 6 6 5 6 5 6 6 6 5 5 5 5 4 5 4 4 4 4 4 3 4 5 6 7 7 8 8 8 8 8 7 6 5 4
3 2 2 1 2 2 4 4 4 4 5 5 5 6 6 6 5 5 5 4 5 5 5 5 5 4 4 4 3 3 3 5 6 7 7 7 7 7 8 9 10 17 13 15
Wind_Direction
219 234 243 244 240 259 288 303 304 303 306 293 287 285 265 216 185 149 157 157 163 167 160 154 156 163 163 166 171 173 178 171 167 168 172 180 193 191 183 166 156 164 178 159
232 233 244 260 269 270 275 281 284 284 281 278 282 280 260 216 190 166 165 162 169 159 151 154 161 166 169 173 175 177 180 174 173 168 170 180 178 190 193 171 155 169 173 163
234 245 234 243 257 261 263 268 279 294 300 277 268 266 244 208 189 172 163 160 165 158 155 159 167 172 172 177 180 183 181 178 178 168 168 175 175 191 188 173 162 171 172 181
239 249 257 251 251 254 260 261 273 282 284 284 280 278 229 181 194 182 163 159 153 145 153 159 165 174 177 177 177 180 178 175 175 173 178 179 186 191 190 182 163 171 179 182
237 235 243 249 253 255 265 279 280 280 279 278 274 274 257 171 178 176 164 159 151 152 156 159 165 171 177 174 174 176 176 176 176 181 183 188 191 191 184 176 162 173 181 192
253 249 237 244 249 251 260 270 271 267 267 261 261 263 251 180 168 167 155 147 148 150 152 154 158 161 166 167 170 170 172 176 176 184 187 197 196 188 180 176 175 184 181 196
244 247 245 242 248 237 236 246 253 243 239 259 261 251 226 152 143 140 142 145 148 148 149 150 155 161 165 167 166 166 170 176 178 184 189 197 197 189 187 185 190 197 187 189
229 232 228 227 233 245 229 235 248 269 274 296 284 258 175 127 118 126 138 142 149 154 148 151 154 157 162 165 165 166 169 173 176 182 186 189 191 194 195 198 195 203 200 187
247 232 213 209 218 234 242 234 250 267 275 275 243 222 151 142 134 136 140 141 149 149 146 149 147 153 161 163 160 161 163 167 174 181 180 184 192 200 199 193 198 197 191 182
259 279 235 195 209 222 243 252 248 256 275 280 276 280 191 145 139 150 152 145 144 148 151 148 148 155 159 155 155 155 160 167 175 178 179 183 189 194 198 197 199 195 192 187
237 258 262 211 202 224 217 240 256 272 270 274 279 292 116 154 166 178 176 151 151 156 154 145 143 144 150 151 155 157 157 164 171 174 178 177 179 186 193 199 198 188 180 177
218 240 254 245 210 221 231 228 232 243 261 273 277 257 155 167 167 171 168 142 142 144 140 140 141 146 153 154 153 155 160 165 170 169 165 171 175 173 183 187 187 178 174 173
221 233 244 246 228 213 228 226 231 235 249 263 270 247 144 151 154 151 139 135 135 137 137 138 141 147 151 150 151 154 161 163 166 164 163 167 171 172 179 180 178 171 164 162
267 239 243 247 242 226 226 230 232 236 239 247 256 242 180 177 155 130 131 135 138 139 138 140 141 139 138 137 140 150 158 158 161 157 162 161 163 162 163 163 162 158 157 154
257 243 246 260 271 263 249 236 235 235 244 256 260 265 215 178 151 153 154 150 145 148 147 147 145 137 135 135 141 143 146 145 147 149 153 146 141 138 138 135 139 140 145 149
229 255 254 255 260 263 257 242 239 240 241 249 257 260 206 156 147 158 160 157 153 154 150 149 144 141 143 143 148 142 141 141 139 142 143 136 134 134 135 137 135 131 128 124
219 226 250 258 256 256 252 247 247 248 245 246 254 236 178 158 134 147 165 157 150 151 146 143 144 145 145 145 143 141 139 140 142 144 145 141 135 131 130 132 125 122 120 115
239 229 231 249 257 256 258 259 253 253 258 257 236 183 136 121 113 129 160 147 141 141 139 138 142 143 142 143 141 137 139 144 149 147 145 144 140 134 128 123 122 121 119 115
235 237 243 245 246 247 253 259 258 251 250 259 260 129 118 120 124 119 95 113 120 124 126 129 132 131 131 135 136 139 143 147 151 148 141 141 140 136 131 127 127 126 124 121
226 224 239 247 253 253 252 273 273 257 238 314 291 150 143 158 180 133 113 106 107 109 112 118 117 114 113 118 132 139 142 141 141 138 134 128 129 132 130 126 119 116 118 118
212 214 225 239 249 255 282 302 274 248 315 28 37 70 117 85 83 109 106 98 102 103 106 107 108 108 106 110 123 130 127 133 133 128 129 125 125 125 124 118 114 114 114 111
209 213 218 232 243 246 338 295 266 68 54 53 65 78 87 93 99 103 102 105 115 118 111 108 105 101 95 98 116 126 125 123 118 121 121 119 117 119 122 120 117 116 117 116
221 228 231 223 235 77 55 63 64 80 77 70 84 92 102 108 116 114 114 121 120 111 107 103 103 98 89 84 103 119 120 124 124 121 121 118 115 108 112 118 122 121 121 121
224 250 246 194 127 98 82 79 63 68 75 76 86 97 103 111 116 118 126 123 112 105 104 99 99 95 88 79 89 101 120 119 118 120 119 118 115 108 100 100 105 112 121 128
323 306 258 215 152 113 83 75 76 85 98 96 90 92 95 102 110 115 118 112 105 97 88 89 91 88 83 79 82 94 114 119 121 119 120 117 114 114 99 80 63 80 77 110
262 263 276 288 51 81 116 128 113 101 102 99 89 84 79 88 104 105 100 94 96 95 89 88 90 95 92 88 84 88 109 124 127 124 124 124 122 116 111 103 82 58 66 71